Regional Weather Roundup
Issued by NWS Sterling, VA

Home | Current Version | Previous Version | Graphics & Text | Print | Product List | Glossary On
Versions: 1 2 3 4 5 6 7 8 9 10 11 12 13 14 15 16 17 18 19 20 21 22 23 24 25 26 27 28 29 30 31 32 33 34 35 36 37 38 39 40 41 42 43 44 45 46 47 48 49 50
000
ASUS41 KLWX 292110
RWRLWX

REGIONAL WEATHER ROUNDUP
NATIONAL WEATHER SERVICE BALTIMORE MD/WASHINGTON DC
500 PM EDT SAT AUG 29 2015

Note: "FAIR" indicates few or no clouds below 12,000 feet
with no significant weather and/or obstructions to visibility.
 TC=TEMPERATURE CELSIUS

 * =Non NWS site. Station does not report precipitation (e.g. rain,
    snow, etc.), thunder, or fog.

DCZ001-MDZ009-015-VAZ040>042-051-053>054-292200-
WASHINGTON METRO

CITY           SKY/WX    TMP DP  RH WIND       PRES   REMARKS
WASHINGTON NAT PTSUNNY   88  64  44 S12       30.11F
DULLES         PTSUNNY   86  64  47 SW9       30.11F
ANDREWS AFB    FAIR      86  61  43 S10       30.11F
FT BELVOIR     FAIR      86  63  44 VRB6      30.11F
QUANTICO       FAIR      82  68  62 S9        30.11F
COLLEGE PARK*  FAIR      88  57  35 SE5       30.10F
LEESBURG*      FAIR      90  66  45 SW8       30.11F HX  92
MANASSAS*      SUNNY     84  64  51 SE10      30.11F
GAITHERSBURG*  FAIR      86  61  42 W6        30.15S

$$

MDZ006>007-011-014-292200-
BALTIMORE METRO

CITY           SKY/WX    TMP DP  RH WIND       PRES   REMARKS
BWI AIRPORT    PTSUNNY   83  65  54 SE9       30.10F
MD SCIENCE CTR   N/A     84  65  52 MISG      30.10F
MARTIN STATE   MOSUNNY   82  70  65 SE13      30.13F
ANNAPOLIS      FAIR      81  63  54 S14       30.11F
FORT MEADE*    FAIR      82  63  51 SE7       30.13S

$$

MDZ012-015-019>023-292200-
MARYLAND EASTERN SHORE

CITY           SKY/WX    TMP DP  RH WIND       PRES   REMARKS
OCEAN CITY     FAIR      79  59  50 S8        30.16F
SALISBURY      FAIR      80  61  52 S8        30.14F
BAY BRIDGE AP*   N/A     82  59  44 S12       30.12F
CAMBRIDGE*     FAIR      81  59  47 S6        30.14F
EASTON*        MOSUNNY   86  63  45 SW12      30.17F

$$

MDZ017>025-292200-
SOUTHERN MARYLAND

CITY           SKY/WX    TMP DP  RH WIND       PRES   REMARKS
PATUXENT RIVER CLOUDY    80  60  50 SE9       30.14S
ST INIGOES     FAIR      80  62  54 SE7       30.13F
LEONARDTOWN*   FAIR      81  61  50 CALM      30.15F

$$

MDZ003>005-292200-
NORTH CENTRAL MARYLAND

CITY           SKY/WX    TMP DP  RH WIND       PRES   REMARKS
FREDERICK*     MOSUNNY   88  64  45 S7        30.13F
HAGERSTOWN APT FAIR      87  56  34 S12       30.10F
WESTMINSTER*   FAIR      88  55  33 W7        30.12F

$$

MDZ501>502-292200-
WESTERN MARYLAND

CITY           SKY/WX    TMP DP  RH WIND       PRES   REMARKS
OAKLAND*       FAIR      75  55  50 W7        30.23S
CUMBERLAND*    FAIR      90  54  29 CALM      30.13F

$$

VAZ025>031-292200-
SHENANDOAH VALLEY

CITY           SKY/WX    TMP DP  RH WIND       PRES   REMARKS
WINCHESTER*    FAIR      88  63  42 S8        30.12S
FRONT ROYAL*   CLOUDY    88  66  48 SE7       30.10F HX  90
LURAY*         CLOUDY    82  63  51 SE5       30.11F
NEW MARKET*    MOCLDY    85  62  46 S5        30.09F
STAUNTON*      FAIR      87  60  39 S13       30.15F
WAYNESBORO*    FAIR      83  63  52 S8        30.15F

$$

WVZ021-048>050-054>055-292200-
EASTERN WEST VIRGINIA PANHANDLE

CITY           SKY/WX    TMP DP  RH WIND       PRES   REMARKS
MARTINSBURG    FAIR      87  57  35 VRB5      30.10F
PETERSBURG*    FAIR      82  67  62 CALM      30.12S

$$

VAZ036>039-050-292200-
CENTRAL FOOTHILLS

CITY           SKY/WX    TMP DP  RH WIND       PRES   REMARKS
CHARLOTTESVILL FAIR      83  62  49 S12       30.12F
CULPEPER*      FAIR      84  63  49 S5        30.11F
ORANGE*        FAIR      86  61  42 S6        30.13F
GORDONSVILLE*  FAIR      84  63  48 SW8       30.12S
WARRENTON*     FAIR      88  64  45 S6        30.10F

$$

VAZ055>057-292200-
NORTH AND CENTRAL PIEDMONT

CITY           SKY/WX    TMP DP  RH WIND       PRES   REMARKS
FREDERICKSBRG* FAIR      87  62  42 S8        30.11F
STAFFORD*      FAIR      84  60  44 S8        30.15F

$$

NCZ024-NYZ072-PAZ021-071-VAZ022-071-292200-
OTHER REGIONAL OBSERVATIONS

CITY           SKY/WX    TMP DP  RH WIND       PRES   REMARKS
NEW YORK CITY  FAIR      83  58  42 S6        30.13F
PHILADELPHIA   FAIR      87  60  40 SW12      30.12F
PITTSBURGH     FAIR      82  59  45 S8        30.11F
ROANOKE        CLOUDY    81  62  52 S9        30.17F
RICHMOND       CLOUDY    84  62  47 SE9       30.13F
RALEIGH        PTSUNNY   85  58  39 CALM      30.15F

$$

ANZ530>537-292200-
MARINE OBSERVATIONS

STATION/POSITION TIME  TEMP    WIND        PRES
                       AIR SEA DIR/SP/G
                 (UTC) (F)     (DEG/KT/KT) (MB)
THOMAS PT LIGHT  NOT AVBL

$$



USA.gov is the U.S. government's official web portal to all federal, state and local government web resources and services.